This is the latest recevied weather packets stored in our database for station/object K6GMW. If no packets are shown the sender has not sent any weather packets the latest 10 day(s).
| Time | Temp. | Humidity | Pressure | Rain* | Wind** | Luminosity | Snow |
|---|---|---|---|---|---|---|---|
| 1778119834 | 12.78° C | 88% | 1016.6 hPa | 0 mm | - | 0 W/m² | - |
| 1778119531 | 12.78° C | 89% | 1016.6 hPa | 0 mm | - | 0 W/m² | - |
| 1778119228 | 12.78° C | 89% | 1016.1 hPa | 0 mm | - | 0 W/m² | - |
| 1778118926 | 12.78° C | 89% | 1016.2 hPa | 0 mm | - | 0 W/m² | - |
| 1778118623 | 13.33° C | 89% | 1016.1 hPa | 0 mm | - | 0 W/m² | - |
| 1778118320 | 13.33° C | 89% | 1015.9 hPa | 0 mm | - | 0 W/m² | - |
| 1778118016 | 13.33° C | 89% | 1016.1 hPa | 0 mm | - | 0 W/m² | - |
| 1778117713 | 13.33° C | 89% | 1016.1 hPa | 0 mm | - | 0 W/m² | - |
| 1778117410 | 13.33° C | 89% | 1016 hPa | 0 mm | - | 0 W/m² | - |
| 1778117107 | 13.33° C | 89% | 1015.6 hPa | 0 mm | - | 0 W/m² | - |
| 1778116803 | 13.33° C | 89% | 1015.1 hPa | 0 mm | - | 0 W/m² | - |
| 1778116500 | 13.33° C | 90% | 1015 hPa | 0 mm | - | 0 W/m² | - |
| 1778116196 | 13.33° C | 90% | 1015.2 hPa | 0 mm | - | 0 W/m² | - |
| 1778115891 | 13.89° C | 91% | 1015.2 hPa | 0 mm | - | 1 W/m² | - |
| 1778115588 | 13.89° C | 91% | 1015.2 hPa | 0 mm | - | 1 W/m² | - |
| 1778115285 | 13.89° C | 91% | 1015 hPa | 0 mm | - | 2 W/m² | - |
| 1778114981 | 13.89° C | 91% | 1015 hPa | 0 mm | - | 2 W/m² | - |
| 1778114678 | 13.89° C | 91% | 1015.1 hPa | 0 mm | - | 3 W/m² | - |
| 1778114376 | 13.89° C | 91% | 1015.1 hPa | 0 mm | - | 6 W/m² | - |
| 1778114071 | 13.89° C | 91% | 1015 hPa | 0 mm | - | 6 W/m² | - |
| 1778113766 | 13.89° C | 92% | 1014.9 hPa | 0 mm | - | 9 W/m² | - |
| 1778113462 | 14.44° C | 92% | 1014.5 hPa | 0 mm | - | 14 W/m² | - |
| 1778113160 | 14.44° C | 92% | 1015 hPa | 0 mm | - | 10 W/m² | - |
| 1778112856 | 14.44° C | 91% | 1014.9 hPa | 0 mm | - | 10 W/m² | - |
| 1778112554 | 14.44° C | 91% | 1014.9 hPa | 0 mm | - | 9 W/m² | - |
* Rain latest hour (hover to see other rain measurements)
** Current wind speed in m/s (hover to see current wind gust speed)